Location: Cypress
(33.8170°N, 118.0373°W)
Time: 22:03:46
(UTC+00:00)

Daily predictions for brighter satellites

Satellite Brightness Start Highest point End
(mag) Time Altitude Azimuth Time Altitude Azimuth Time Altitude Azimuth
Cosmos 1805 Rocket 4.4 12:00:59 10° S 12:05:12 53° E 12:09:28 10° NNE
CZ-3B R/B 4.3 12:06:07 10° N 12:07:38 14° NE 12:09:01 10° ENE
PSLV R/B 3.6 12:05:20 10° N 12:09:42 79° WNW 12:14:03 10° SSW
Cosmos 1484 Rocket 2.9 12:06:26 10° NNE 12:10:07 71° E 12:13:49 10° S
BREEZE-M DEB (TANK) 3.1 12:08:16 10° WSW 12:12:30 51° NNW 12:15:15 10° NE
Lacrosse 4 Rocket 2.0 12:10:33 10° NW 12:14:09 31° WSW 12:17:43 10° S
Cosmos 1656 4.5 12:11:39 10° NNW 12:17:18 60° ENE 12:22:53 10° SSE
ATLAS 3B CENTAUR R/B 4.1 12:10:33 10° W 12:27:43 65° S 12:35:58 10° ESE
